Greer, SC

4:30 AM EST on February 10, 2016 (GMT -0500)
Greenville-Spartanburg International

Weather History for KGSP - December, 2013

Change the Weather History Date:

Saturday, December 7, 2013

  Actual Average Record
Temperature  
Mean Temperature 58 °F 46 °F  
Max Temperature 66 °F 56 °F 74 °F (1994)
Min Temperature 49 °F 35 °F 11 °F (1937)
Degree Days  
Heating Degree Days 7 19  
Month to date heating degree days 66 130  
Since 1 July heating degree days 670 683  
Cooling Degree Days 0 0  
Month to date cooling degree days 6 0  
Year to date cooling degree days 1533 1715  
Growing Degree Days 4 (Base 50)    
Moisture  
Dew Point 52 °F    
Average Humidity 81    
Maximum Humidity 100    
Minimum Humidity 62    
Precipitation  
Precipitation 0.12 in 0.13 in 2.83 in (1950)
Month to date precipitation 0.60 0.99  
Year to date precipitation 63.49 44.07  
Snow  
Snow 0.00 in 0.00 in 0.00 in ()
Month to date snowfall 0.0 0.0  
Since 1 July snowfall 0.1 0.1  
Snow Depth 0.00 in    
Sea Level Pressure  
Sea Level Pressure 30.17 in    
Wind  
Wind Speed 8 mph (ENE)    
Max Wind Speed 14 mph    
Max Gust Speed 20 mph    
Visibility 9 miles    
Events Rain    
T = Trace of Precipitation, MM = Missing Value Source: NWS Daily Summary

Daily Weather History Graph

Daily Weather History Graph

Search for Another Location

Airport or City:

Trip Planner

Search our weather history database for the weather conditions in past years. The results will help you decide how hot, cold, wet, or windy it might be!

Date:

Astronomy

Dec. 07, 2013 Rise Set
Actual Time 7:23 AM EST 5:17 PM EST
Civil Twilight 6:55 AM EST 5:45 PM EST
Nautical Twilight 6:24 AM EST 6:16 PM EST
Astronomical Twilight 5:53 AM EST 6:47 PM EST
Moon 11:15 AM EST (12/7) 10:48 PM EST (12/7)
Length of Visible Light 10h 49m
Length of Day
9h 53m
Waxing Crescent, 29% of the Moon is Illuminated
Dec 7
Waxing Crescent
Dec 9
First Quarter
Dec 17
Full
Dec 25
Last Quarter
Jan 1
New

Hourly Weather History & Observations

Time (EST) Temp. Dew Point Humidity Pressure Visibility Wind Dir Wind Speed Gust Speed Precip Events Conditions
12:14 AM 66.2 °F 64.4 °F 94% 30.02 in 5.0 mi SW 9.2 mph - 0.02 in Rain Light Rain
12:53 AM 66.0 °F 64.0 °F 93% 29.98 in 8.0 mi South 5.8 mph - 0.04 in Rain Light Rain
1:27 AM 64.4 °F 64.4 °F 100% 30.02 in 1.8 mi South 8.1 mph - 0.06 in Rain Heavy Rain
1:32 AM 64.4 °F 64.4 °F 100% 30.01 in 2.5 mi South 8.1 mph - 0.09 in Rain Light Rain
1:39 AM 64.4 °F 62.6 °F 94% 30.01 in 9.0 mi SSW 9.2 mph - 0.09 in Rain Light Rain
1:51 AM 64.4 °F 62.6 °F 94% 30.01 in 10.0 mi SSW 9.2 mph - 0.09 in   Overcast
1:53 AM 64.0 °F 63.0 °F 96% 29.99 in 10.0 mi SSW 8.1 mph - 0.09 in   Overcast
2:03 AM 64.4 °F 62.6 °F 94% 30.01 in 10.0 mi SSW 6.9 mph - N/A   Mostly Cloudy
2:53 AM 63.0 °F 62.1 °F 97% 30.00 in 10.0 mi SSW 8.1 mph - N/A   Overcast
3:53 AM 63.0 °F 62.1 °F 97% 30.01 in 9.0 mi West 4.6 mph - 0.00 in   Overcast
4:53 AM 63.0 °F 61.0 °F 93% 30.03 in 10.0 mi West 3.5 mph - N/A   Overcast
5:53 AM 60.1 °F 57.9 °F 93% 30.07 in 7.0 mi North 6.9 mph - 0.00 in   Overcast
6:31 AM 57.2 °F 55.4 °F 94% 30.11 in 7.0 mi Variable 3.5 mph - N/A   Overcast
6:53 AM 57.0 °F 52.0 °F 83% 30.12 in 10.0 mi NNW 3.5 mph - N/A   Overcast
7:01 AM 55.4 °F 51.8 °F 88% 30.13 in 10.0 mi North 5.8 mph - N/A   Overcast
7:53 AM 55.0 °F 50.0 °F 83% 30.15 in 10.0 mi North 8.1 mph - N/A   Overcast
8:53 AM 57.0 °F 46.9 °F 69% 30.17 in 10.0 mi North 6.9 mph - N/A   Scattered Clouds
9:53 AM 57.9 °F 46.0 °F 65% 30.21 in 10.0 mi North 6.9 mph - N/A   Overcast
10:53 AM 57.0 °F 45.0 °F 64% 30.22 in 10.0 mi NNE 11.5 mph - N/A   Overcast
11:53 AM 57.9 °F 48.0 °F 70% 30.22 in 10.0 mi NE 8.1 mph - N/A   Overcast
12:53 PM 57.9 °F 51.1 °F 78% 30.21 in 10.0 mi East 11.5 mph - N/A   Overcast
1:53 PM 57.0 °F 50.0 °F 77% 30.21 in 10.0 mi ENE 10.4 mph - N/A   Overcast
2:53 PM 55.9 °F 48.0 °F 75% 30.21 in 10.0 mi East 12.7 mph - N/A   Overcast
3:53 PM 55.0 °F 46.0 °F 72% 30.23 in 10.0 mi East 11.5 mph - N/A   Overcast
4:53 PM 54.0 °F 46.0 °F 75% 30.25 in 10.0 mi East 11.5 mph - N/A   Overcast
5:53 PM 53.1 °F 45.0 °F 74% 30.27 in 10.0 mi East 8.1 mph - N/A   Overcast
6:16 PM 51.8 °F 44.6 °F 76% 30.29 in 10.0 mi East 6.9 mph - N/A   Overcast
6:48 PM 51.8 °F 44.6 °F 76% 30.30 in 10.0 mi East 9.2 mph - N/A   Overcast
6:53 PM 52.0 °F 44.1 °F 74% 30.30 in 10.0 mi East 9.2 mph - N/A   Overcast
7:53 PM 52.0 °F 43.0 °F 71% 30.32 in 10.0 mi NE 6.9 mph - N/A   Overcast
8:53 PM 51.1 °F 42.1 °F 71% 30.33 in 10.0 mi ENE 8.1 mph - N/A   Overcast
9:53 PM 50.0 °F 41.0 °F 71% 30.35 in 10.0 mi NE 8.1 mph - N/A   Overcast
10:41 PM 50.0 °F 39.2 °F 66% 30.36 in 10.0 mi ENE 8.1 mph - N/A   Overcast
10:53 PM 50.0 °F 39.9 °F 68% 30.36 in 10.0 mi ENE 9.2 mph - N/A   Overcast
11:53 PM 48.9 °F 42.1 °F 77% 30.35 in 10.0 mi East 11.5 mph - N/A   Overcast